Total_Precipitation_Accumulation
1.19 1.29 1.33 1.33 1.28 1.39 1.41 1.39 1.42 1.46 1.39 1.44 1.53 1.60 1.58 1.64 1.75 1.85 1.72 1.78 1.90 2.06 1.98 1.96 2.02 2.12 2.08 1.99 2.05 2.13 2.27 2.55 2.52 2.07 1.96 1.96 1.83 1.62 1.53 1.45 1.41 1.51 1.51
1.14 1.28 1.36 1.49 1.46 1.41 1.39 1.42 1.45 1.55 1.58 1.56 1.59 1.62 1.52 1.56 1.76 1.83 1.82 1.85 1.90 1.95 2.11 2.32 2.28 2.29 2.21 2.07 2.17 2.14 2.20 2.47 2.40 2.18 2.20 2.19 2.13 1.87 1.74 1.60 1.45 1.44 1.50
1.20 1.28 1.43 1.51 1.42 1.37 1.49 1.57 1.58 1.71 1.83 1.86 1.84 1.74 1.65 1.64 1.71 1.81 1.90 1.92 1.96 2.03 2.14 2.25 2.29 2.43 2.31 2.21 2.15 2.12 2.20 2.36 2.45 2.29 2.25 2.40 2.31 2.05 1.90 1.69 1.50 1.53 1.38
1.28 1.42 1.49 1.52 1.50 1.49 1.57 1.67 1.67 1.73 1.89 2.02 1.99 1.93 1.89 1.79 1.66 1.64 1.68 1.77 1.94 2.08 2.13 2.06 2.14 2.37 2.43 2.39 2.23 2.18 2.27 2.42 2.46 2.40 2.35 2.46 2.47 2.39 2.21 1.95 1.80 1.68 1.53
1.40 1.55 1.59 1.70 1.75 1.79 1.88 1.88 1.81 1.81 1.85 2.02 2.09 2.10 2.04 1.87 1.64 1.65 1.77 1.77 1.94 1.98 1.94 1.84 1.83 2.03 2.26 2.35 2.16 2.14 2.26 2.29 2.30 2.33 2.34 2.40 2.44 2.54 2.41 2.12 1.90 1.77 1.56
1.55 1.85 1.91 1.98 1.98 2.05 2.20 2.27 2.18 2.16 2.27 2.31 2.25 2.19 2.10 1.74 1.79 1.78 1.76 1.79 1.91 1.94 1.92 1.85 1.72 1.69 1.72 1.87 2.00 2.13 2.25 2.22 2.21 2.37 2.53 2.58 2.57 2.58 2.57 2.35 2.07 1.84 1.70
1.73 1.98 2.15 2.21 2.23 2.28 2.37 2.39 2.34 2.45 2.63 2.66 2.54 2.36 2.21 2.11 1.99 1.76 1.71 1.63 1.68 1.72 1.77 1.76 1.50 1.36 1.47 1.41 1.59 1.74 1.87 1.95 1.98 2.13 2.30 2.42 2.54 2.68 2.72 2.48 2.29 2.10 1.85
2.02 2.15 2.25 2.26 2.27 2.30 2.35 2.27 2.30 2.44 2.52 2.55 2.49 2.36 2.26 2.17 2.02 1.68 1.59 1.40 1.46 1.51 1.54 1.54 1.49 1.41 1.39 1.45 1.46 1.45 1.44 1.52 1.63 1.65 1.78 2.02 2.26 2.48 2.64 2.55 2.43 2.15 1.87
2.07 2.08 2.04 2.12 2.21 2.25 2.27 2.32 2.36 2.35 2.23 2.13 2.11 2.12 2.10 2.14 2.05 1.69 1.49 1.35 1.47 1.50 1.51 1.54 1.57 1.49 1.59 1.46 1.42 1.46 1.48 1.50 1.54 1.58 1.60 1.76 2.02 2.20 2.30 2.37 2.34 2.19 1.95
2.05 2.05 2.01 2.10 2.18 2.22 2.27 2.33 2.28 2.19 2.12 2.06 1.99 2.02 2.01 1.99 1.97 1.58 1.43 1.36 1.49 1.51 1.55 1.55 1.54 1.43 1.43 1.30 1.25 1.39 1.41 1.43 1.47 1.48 1.49 1.52 1.61 1.92 2.23 2.07 2.07 2.10 1.92
1.85 1.94 2.05 2.21 2.27 2.25 2.28 2.24 2.17 2.07 2.08 2.10 2.04 1.98 1.95 1.92 1.93 1.62 1.43 1.29 1.46 1.63 1.62 1.56 1.54 1.45 1.19 1.12 1.09 1.11 1.16 1.20 1.30 1.31 1.26 1.27 1.37 1.53 1.78 1.86 1.83 1.78 1.73
1.68 1.78 1.82 1.93 2.02 2.01 2.07 2.00 2.00 1.97 1.95 1.92 1.86 1.78 1.76 1.76 1.66 1.52 1.30 1.17 1.23 1.39 1.52 1.54 1.54 1.40 1.12 1.00 0.91 0.90 0.89 0.86 0.95 1.08 1.13 1.16 1.21 1.33 1.48 1.63 1.71 1.74 1.62
1.57 1.68 1.74 1.78 1.91 1.95 1.96 1.88 1.84 1.82 1.76 1.68 1.61 1.56 1.59 1.59 1.53 1.29 1.09 1.00 1.02 1.13 1.31 1.47 1.38 1.20 1.02 0.88 0.82 0.79 0.75 0.72 0.84 1.00 1.08 1.08 1.09 1.17 1.42 1.71 1.87 1.94 1.86
1.62 1.64 1.70 1.75 1.82 1.99 2.02 1.87 1.76 1.66 1.60 1.56 1.50 1.52 1.56 1.57 1.49 1.29 1.07 0.91 0.93 1.01 1.09 1.18 1.20 1.18 1.12 1.03 0.93 0.82 0.74 0.79 0.90 1.00 1.13 1.24 1.35 1.43 1.52 1.62 1.78 1.85 1.87
1.34 1.31 1.31 1.42 1.57 1.75 1.81 1.76 1.60 1.51 1.57 1.59 1.55 1.51 1.43 1.37 1.39 1.31 1.12 1.05 1.07 1.12 1.10 1.14 1.18 1.27 1.32 1.32 1.28 1.18 1.09 1.06 1.02 1.02 1.17 1.31 1.32 1.34 1.37 1.47 1.63 1.67 1.57
1.31 1.22 1.20 1.21 1.30 1.50 1.70 1.78 1.64 1.42 1.45 1.40 1.33 1.28 1.24 1.19 1.15 1.12 1.04 0.99 1.04 1.06 1.01 1.14 1.30 1.41 1.50 1.51 1.50 1.37 1.22 1.10 1.03 1.05 1.13 1.22 1.27 1.28 1.32 1.43 1.54 1.55 1.42
1.32 1.26 1.21 1.18 1.22 1.34 1.56 1.78 1.83 1.60 1.38 1.27 1.12 1.00 0.95 0.93 0.95 0.98 1.00 0.96 0.94 0.91 0.86 1.02 1.19 1.28 1.35 1.36 1.36 1.29 1.23 1.18 1.16 1.19 1.25 1.30 1.36 1.36 1.37 1.39 1.47 1.50 1.40
1.23 1.20 1.11 1.07 1.15 1.26 1.47 1.75 1.93 1.87 1.66 1.38 1.09 0.90 0.84 0.79 0.80 0.87 0.91 0.86 0.82 0.77 0.73 0.85 0.98 1.09 1.21 1.33 1.39 1.37 1.34 1.31 1.24 1.20 1.27 1.30 1.33 1.37 1.35 1.32 1.37 1.45 1.42
1.16 1.17 1.13 1.12 1.15 1.18 1.38 1.65 1.84 1.89 1.80 1.62 1.26 0.94 0.80 0.72 0.73 0.83 0.83 0.78 0.80 0.78 0.75 0.78 0.84 0.98 1.15 1.31 1.41 1.47 1.46 1.39 1.27 1.23 1.24 1.27 1.29 1.34 1.32 1.26 1.32 1.43 1.44
1.03 1.05 0.96 0.96 1.01 1.03 1.13 1.33 1.59 1.73 1.67 1.59 1.36 0.95 0.68 0.63 0.69 0.85 0.90 0.95 0.96 0.88 0.84 0.84 0.88 0.98 1.14 1.31 1.39 1.41 1.44 1.38 1.33 1.28 1.25 1.29 1.31 1.32 1.30 1.25 1.27 1.35 1.33
0.95 0.95 0.87 0.80 0.85 0.92 1.00 1.19 1.46 1.64 1.59 1.49 1.33 0.99 0.77 0.73 0.82 0.90 1.00 1.04 1.04 0.97 0.93 0.89 0.88 0.95 1.09 1.22 1.30 1.34 1.38 1.35 1.29 1.28 1.25 1.28 1.32 1.33 1.39 1.39 1.35 1.37 1.39
0.78 0.81 0.78 0.77 0.83 0.88 0.90 1.07 1.34 1.50 1.45 1.36 1.27 1.09 0.95 0.93 1.00 1.05 1.07 1.03 0.98 0.91 0.88 0.91 0.93 0.99 1.08 1.15 1.21 1.32 1.37 1.36 1.32 1.29 1.29 1.31 1.36 1.36 1.39 1.42 1.38 1.36 1.36
0.66 0.65 0.64 0.65 0.70 0.77 0.88 1.07 1.22 1.29 1.27 1.25 1.13 1.00 0.96 0.99 1.00 1.03 1.04 1.01 0.96 0.92 0.91 0.95 0.99 1.03 1.08 1.11 1.13 1.22 1.27 1.26 1.26 1.27 1.33 1.37 1.39 1.38 1.38 1.39 1.36 1.37 1.35
0.69 0.72 0.73 0.74 0.76 0.86 0.98 1.10 1.15 1.12 1.08 1.05 1.02 1.00 1.00 1.01 0.97 0.96 0.97 0.97 0.98 0.99 0.99 0.98 0.99 0.98 0.99 1.01 1.04 1.05 1.09 1.08 1.05 1.08 1.14 1.23 1.28 1.29 1.30 1.33 1.34 1.35 1.36
0.60 0.67 0.75 0.85 0.89 0.94 1.01 1.06 1.06 1.03 0.95 0.91 0.91 0.94 0.94 0.92 0.95 0.96 0.96 0.95 0.94 0.92 0.87 0.88 0.88 0.85 0.82 0.81 0.80 0.82 0.90 0.85 0.78 0.82 0.90 1.04 1.11 1.15 1.16 1.21 1.28 1.33 1.37
0.55 0.56 0.62 0.70 0.75 0.81 0.93 1.02 1.00 0.93 0.84 0.81 0.83 0.88 0.88 0.86 0.88 0.89 0.90 0.92 0.93 0.91 0.89 0.87 0.81 0.79 0.78 0.76 0.75 0.78 0.76 0.67 0.64 0.66 0.68 0.79 0.95 1.04 1.09 1.15 1.19 1.29 1.32